| time (UTC) | temp F | wind direction | speed MPH | gust MPH | rain 1hr in | rain 24hr in | rain mn in | humidity % | barometer mb |
| 20260504231421 | 78 | 104 | 4.0 | 4.0 | 0.00 | 0.00 | 0.00 | 37 | 1010.7 |
| 20260504230918 | 77 | 156 | 1.0 | 4.0 | 0.00 | 0.00 | 0.00 | 39 | 1010.5 |
| 20260504230415 | 77 | 118 | 1.0 | 5.0 | 0.00 | 0.00 | 0.00 | 39 | 1010.5 |
| 20260504225914 | 78 | 115 | 3.0 | 4.0 | 0.00 | 0.00 | 0.00 | 38 | 1010.5 |
| 20260504225410 | 78 | 147 | 3.0 | 7.0 | 0.00 | 0.00 | 0.00 | 37 | 1010.7 |
| 20260504224908 | 78 | 135 | 3.0 | 7.0 | 0.00 | 0.00 | 0.00 | 39 | 1010.6 |
| 20260504224404 | 78 | 112 | 2.0 | 4.0 | 0.00 | 0.00 | 0.00 | 38 | 1010.8 |
| 20260504223901 | 78 | 108 | 2.0 | 4.0 | 0.00 | 0.00 | 0.00 | 38 | 1010.7 |
| 20260504223356 | 78 | 93 | 1.0 | 4.0 | 0.00 | 0.00 | 0.00 | 37 | 1010.6 |
| 20260504222853 | 78 | 106 | 1.0 | 3.0 | 0.00 | 0.00 | 0.00 | 37 | 1010.7 |
| 20260504222350 | 78 | 131 | 1.0 | 3.0 | 0.00 | 0.00 | 0.00 | 38 | 1010.8 |
| 20260504221848 | 77 | 85 | 2.0 | 3.0 | 0.00 | 0.00 | 0.00 | 39 | 1010.9 |
| 20260504221344 | 78 | 76 | 2.0 | 5.0 | 0.00 | 0.00 | 0.00 | 37 | 1011.2 |
| 20260504220842 | 78 | 14 | 0.0 | 4.0 | 0.00 | 0.00 | 0.00 | 39 | 1010.8 |
| 20260504220338 | 77 | 90 | 3.0 | 5.0 | 0.00 | 0.00 | 0.00 | 40 | 1011.2 |
| 20260504215836 | 77 | 96 | 1.0 | 5.0 | 0.00 | 0.00 | 0.00 | 39 | 1011.4 |
| 20260504215332 | 77 | 78 | 2.0 | 4.0 | 0.00 | 0.00 | 0.00 | 40 | 1011.5 |
| 20260504214828 | 77 | 122 | 2.0 | 5.0 | 0.00 | 0.00 | 0.00 | 40 | 1011.2 |
| 20260504214325 | 77 | 109 | 3.0 | 4.0 | 0.00 | 0.00 | 0.00 | 40 | 1011.3 |
| 20260504213822 | 76 | 86 | 2.0 | 5.0 | 0.00 | 0.00 | 0.00 | 40 | 1011.5 |
| 20260504213318 | 76 | 175 | 0.0 | 3.0 | 0.00 | 0.00 | 0.00 | 42 | 1011.8 |
| 20260504212815 | 77 | 40 | 1.0 | 4.0 | 0.00 | 0.00 | 0.00 | 41 | 1011.8 |
| 20260504212311 | 76 | 92 | 2.0 | 6.0 | 0.00 | 0.00 | 0.00 | 42 | 1011.9 |
| 20260504211809 | 76 | 104 | 3.0 | 4.0 | 0.00 | 0.00 | 0.00 | 41 | 1011.7 |
| 20260504211305 | 75 | 120 | 2.0 | 4.0 | 0.00 | 0.00 | 0.00 | 42 | 1012.0 |
| 20260504210803 | 75 | 79 | 2.0 | 5.0 | 0.00 | 0.00 | 0.00 | 43 | 1011.8 |
| 20260504210259 | 75 | 66 | 0.0 | 3.0 | 0.00 | 0.00 | 0.00 | 43 | 1012.0 |
| 20260504205757 | 75 | 58 | 1.0 | 6.0 | 0.00 | 0.00 | 0.00 | 42 | 1012.0 |
| 20260504205254 | 75 | 86 | 2.0 | 4.0 | 0.00 | 0.00 | 0.00 | 43 | 1012.1 |
| 20260504204752 | 75 | 139 | 3.0 | 6.0 | 0.00 | 0.00 | 0.00 | 43 | 1012.2 |
| 20260504204250 | 75 | 112 | 2.0 | 5.0 | 0.00 | 0.00 | 0.00 | 43 | 1012.2 |
| 20260504203749 | 75 | 99 | 3.0 | 4.0 | 0.00 | 0.00 | 0.00 | 42 | 1012.2 |
| 20260504203246 | 75 | 106 | 3.0 | 4.0 | 0.00 | 0.00 | 0.00 | 42 | 1012.4 |
| 20260504202741 | 75 | 323 | 1.0 | 6.0 | 0.00 | 0.00 | 0.00 | 42 | 1012.5 |
| 20260504202239 | 76 | 103 | 2.0 | 6.0 | 0.00 | 0.00 | 0.00 | 41 | 1012.4 |
| 20260504201735 | 76 | 86 | 2.0 | 6.0 | 0.00 | 0.00 | 0.00 | 41 | 1012.4 |
| 20260504201232 | 75 | 100 | 2.0 | 6.0 | 0.00 | 0.00 | 0.00 | 41 | 1012.5 |
| 20260504200730 | 75 | 113 | 3.0 | 5.0 | 0.00 | 0.00 | 0.00 | 41 | 1012.3 |
| 20260504200226 | 75 | 125 | 3.0 | 6.0 | 0.00 | 0.00 | 0.00 | 41 | 1012.3 |
| 20260504195723 | 75 | 113 | 2.0 | 5.0 | 0.00 | 0.00 | 0.00 | 42 | 1012.4 |
| 20260504195219 | 75 | 103 | 2.0 | 5.0 | 0.00 | 0.00 | 0.00 | 42 | 1012.4 |
| 20260504194716 | 75 | 119 | 3.0 | 6.0 | 0.00 | 0.00 | 0.00 | 42 | 1012.3 |
| 20260504194212 | 75 | 79 | 2.0 | 5.0 | 0.00 | 0.00 | 0.00 | 41 | 1012.3 |
| 20260504193708 | 75 | 120 | 2.0 | 3.0 | 0.00 | 0.00 | 0.00 | 42 | 1012.5 |
| 20260504193206 | 75 | 117 | 2.0 | 3.0 | 0.00 | 0.00 | 0.00 | 43 | 1012.4 |
| 20260504192704 | 74 | 118 | 3.0 | 5.0 | 0.00 | 0.00 | 0.00 | 42 | 1012.3 |
| 20260504192202 | 75 | 60 | 0.0 | 2.0 | 0.00 | 0.00 | 0.00 | 42 | 1012.2 |
| 20260504191700 | 74 | 112 | 1.0 | 3.0 | 0.00 | 0.00 | 0.00 | 43 | 1012.3 |
| 20260504191156 | 74 | 104 | 0.0 | 6.0 | 0.00 | 0.00 | 0.00 | 43 | 1012.6 |
| 20260504190652 | 75 | 112 | 2.0 | 5.0 | 0.00 | 0.00 | 0.00 | 43 | 1012.6 |
| 20260504190149 | 75 | 109 | 3.0 | 5.0 | 0.00 | 0.00 | 0.00 | 42 | 1012.5 |
| 20260504185645 | 75 | 98 | 7.0 | 8.0 | 0.00 | 0.00 | 0.00 | 42 | 1012.5 |
| 20260504185142 | 75 | 83 | 3.0 | 6.0 | 0.00 | 0.00 | 0.00 | 43 | 1012.5 |
| 20260504184638 | 74 | 73 | 2.0 | 6.0 | 0.00 | 0.00 | 0.00 | 44 | 1012.4 |
| 20260504184133 | 74 | 140 | 3.0 | 5.0 | 0.00 | 0.00 | 0.00 | 44 | 1012.4 |
| 20260504183630 | 74 | 111 | 5.0 | 5.0 | 0.00 | 0.00 | 0.00 | 44 | 1012.3 |
| 20260504183128 | 74 | 329 | 1.0 | 8.0 | 0.00 | 0.00 | 0.00 | 44 | 1012.3 |
| 20260504182625 | 74 | 149 | 0.0 | 4.0 | 0.00 | 0.00 | 0.00 | 45 | 1012.3 |
| 20260504182123 | 74 | 96 | 4.0 | 4.0 | 0.00 | 0.00 | 0.00 | 44 | 1012.3 |
| 20260504181620 | 73 | 95 | 0.0 | 6.0 | 0.00 | 0.00 | 0.00 | 45 | 1012.6 |
| 20260504181117 | 73 | 65 | 1.0 | 5.0 | 0.00 | 0.00 | 0.00 | 45 | 1012.7 |
| 20260504180617 | 73 | 78 | 1.0 | 6.0 | 0.00 | 0.00 | 0.00 | 46 | 1012.9 |
| 20260504180115 | 73 | 115 | 5.0 | 5.0 | 0.00 | 0.00 | 0.00 | 46 | 1013.2 |
| 20260504175612 | 73 | 114 | 1.0 | 6.0 | 0.00 | 0.00 | 0.00 | 46 | 1013.0 |
| 20260504175108 | 73 | 92 | 3.0 | 6.0 | 0.00 | 0.00 | 0.00 | 46 | 1013.0 |
| 20260504174607 | 73 | 152 | 4.0 | 8.0 | 0.00 | 0.00 | 0.00 | 47 | 1012.6 |
| 20260504174103 | 73 | 86 | 3.0 | 11.0 | 0.00 | 0.00 | 0.00 | 46 | 1012.7 |
| 20260504173600 | 73 | 110 | 2.0 | 6.0 | 0.00 | 0.00 | 0.00 | 46 | 1012.5 |
| 20260504173058 | 73 | 97 | 1.0 | 4.0 | 0.00 | 0.00 | 0.00 | 46 | 1012.0 |
| 20260504172553 | 73 | 59 | 0.0 | 2.0 | 0.00 | 0.00 | 0.00 | 46 | 1011.7 |
| 20260504172050 | 73 | 299 | 0.0 | 0.0 | 0.00 | 0.00 | 0.00 | 46 | 1011.6 |
| 20260504171547 | 73 | 144 | 0.0 | 1.0 | 0.00 | 0.00 | 0.00 | 46 | 1011.9 |
| 20260504171044 | 72 | 45 | 1.0 | 4.0 | 0.00 | 0.00 | 0.00 | 48 | 1012.2 |
| 20260504170539 | 72 | 134 | 3.0 | 4.0 | 0.00 | 0.00 | 0.00 | 48 | 1012.6 |
| 20260504150924 | 73 | 119 | 2.0 | 6.0 | 0.00 | 0.00 | 0.00 | 44 | 1012.2 |
| 20260504150420 | 73 | 117 | 2.0 | 4.0 | 0.00 | 0.00 | 0.00 | 42 | 1012.0 |
| 20260504140847 | 73 | 118 | 0.0 | 1.0 | 0.00 | 0.00 | 0.00 | 41 | 1010.5 |
| 20260504140343 | 73 | 314 | 0.0 | 0.0 | 0.00 | 0.00 | 0.00 | 40 | 1010.9 |
| 20260504130812 | 71 | 283 | 1.0 | 1.0 | 0.00 | 0.00 | 0.00 | 42 | 1010.7 |
| 20260504130308 | 71 | 317 | 0.0 | 1.0 | 0.00 | 0.00 | 0.00 | 42 | 1010.7 |
| 20260504120231 | 73 | 103 | 1.0 | 2.0 | 0.00 | 0.00 | 0.00 | 40 | 1010.0 |
| 20260504110659 | 73 | 77 | 0.0 | 2.0 | 0.00 | 0.00 | 0.00 | 39 | 1010.0 |
| 20260504110155 | 73 | 33 | 1.0 | 2.0 | 0.00 | 0.00 | 0.00 | 39 | 1010.2 |
| 20260504100119 | 74 | 318 | 0.0 | 3.0 | 0.00 | 0.00 | 0.00 | 39 | 1009.8 |
| 20260504081512 | 76 | 104 | 0.0 | 2.0 | 0.00 | 0.00 | 0.00 | 36 | 1009.3 |
| 20260504081008 | 75 | 245 | 0.0 | 0.0 | 0.00 | 0.00 | 0.00 | 34 | 1009.5 |
| 20260504080504 | 75 | 245 | 0.0 | 0.0 | 0.00 | 0.00 | 0.00 | 34 | 1009.5 |
| 20260504050317 | 81 | 339 | 0.0 | 2.0 | 0.00 | 0.00 | 0.00 | 28 | 1009.3 |
| 20260504045814 | 81 | 355 | 1.0 | 2.0 | 0.00 | 0.00 | 0.00 | 28 | 1009.4 |
| 20260504045309 | 81 | 275 | 0.0 | 3.0 | 0.00 | 0.00 | 0.00 | 27 | 1009.1 |
| 20260504044806 | 82 | 74 | 1.0 | 4.0 | 0.00 | 0.00 | 0.00 | 28 | 1009.2 |
| 20260504044303 | 82 | 64 | 2.0 | 4.0 | 0.00 | 0.00 | 0.00 | 27 | 1009.1 |
| 20260504043801 | 82 | 192 | 1.0 | 4.0 | 0.00 | 0.00 | 0.00 | 27 | 1009.1 |
| 20260504043258 | 82 | 92 | 2.0 | 3.0 | 0.00 | 0.00 | 0.00 | 26 | 1009.0 |
| 20260504042755 | 82 | 103 | 0.0 | 2.0 | 0.00 | 0.00 | 0.00 | 27 | 1009.1 |
| 20260504042251 | 82 | 70 | 1.0 | 2.0 | 0.00 | 0.00 | 0.00 | 26 | 1009.1 |
| 20260504041748 | 82 | 350 | 2.0 | 4.0 | 0.00 | 0.00 | 0.00 | 25 | 1008.7 |
| 20260504041244 | 82 | 126 | 0.0 | 2.0 | 0.00 | 0.00 | 0.00 | 26 | 1008.7 |
| 20260504040740 | 83 | 133 | 4.0 | 5.0 | 0.00 | 0.00 | 0.00 | 25 | 1008.8 |
| 20260504040238 | 83 | 58 | 3.0 | 4.0 | 0.00 | 0.00 | 0.00 | 24 | 1008.6 |
| 20260504035733 | 83 | 89 | 1.0 | 3.0 | 0.00 | 0.00 | 0.00 | 23 | 1008.6 |
| 20260504035231 | 84 | 32 | 0.0 | 5.0 | 0.00 | 0.00 | 0.00 | 22 | 1008.4 |
| 20260504034728 | 83 | 343 | 2.0 | 4.0 | 0.00 | 0.00 | 0.00 | 22 | 1008.1 |
| 20260504034225 | 84 | 163 | 0.0 | 2.0 | 0.00 | 0.00 | 0.00 | 22 | 1008.0 |
| 20260504033723 | 84 | 140 | 3.0 | 5.0 | 0.00 | 0.00 | 0.00 | 22 | 1008.1 |
| 20260504033220 | 84 | 117 | 3.0 | 4.0 | 0.00 | 0.00 | 0.00 | 21 | 1008.0 |
| 20260504032717 | 84 | 64 | 4.0 | 5.0 | 0.00 | 0.00 | 0.00 | 21 | 1008.0 |
| 20260504032214 | 84 | 66 | 2.0 | 4.0 | 0.00 | 0.00 | 0.00 | 21 | 1007.5 |
| 20260504031711 | 85 | 132 | 0.0 | 4.0 | 0.00 | 0.00 | 0.00 | 20 | 1007.8 |
| 20260504031208 | 85 | 49 | 1.0 | 4.0 | 0.00 | 0.00 | 0.00 | 21 | 1007.8 |
| 20260504030704 | 85 | 84 | 2.0 | 5.0 | 0.00 | 0.00 | 0.00 | 20 | 1007.5 |
| 20260504030201 | 86 | 100 | 2.0 | 6.0 | 0.00 | 0.00 | 0.00 | 20 | 1007.3 |
| 20260504025658 | 86 | 112 | 3.0 | 4.0 | 0.00 | 0.00 | 0.00 | 20 | 1007.2 |
| 20260504025154 | 86 | 14 | 2.0 | 5.0 | 0.00 | 0.00 | 0.00 | 20 | 1006.9 |
| 20260504024652 | 86 | 342 | 3.0 | 4.0 | 0.00 | 0.00 | 0.00 | 20 | 1006.8 |
| 20260504024148 | 86 | 95 | 2.0 | 5.0 | 0.00 | 0.00 | 0.00 | 20 | 1006.7 |
| 20260504023645 | 87 | 101 | 1.0 | 6.0 | 0.00 | 0.00 | 0.00 | 19 | 1006.7 |
| 20260504023141 | 87 | 74 | 4.0 | 6.0 | 0.00 | 0.00 | 0.00 | 20 | 1006.5 |
| 20260504022637 | 87 | 76 | 3.0 | 6.0 | 0.00 | 0.00 | 0.00 | 19 | 1006.4 |
| 20260504022133 | 87 | 94 | 0.0 | 5.0 | 0.00 | 0.00 | 0.00 | 19 | 1006.5 |
| 20260504021632 | 88 | 101 | 1.0 | 6.0 | 0.00 | 0.00 | 0.00 | 18 | 1006.3 |
| 20260504021128 | 88 | 45 | 2.0 | 5.0 | 0.00 | 0.00 | 0.00 | 18 | 1006.2 |
| 20260504020625 | 88 | 81 | 2.0 | 8.0 | 0.00 | 0.00 | 0.00 | 18 | 1006.1 |
| 20260504020121 | 88 | 115 | 5.0 | 5.0 | 0.00 | 0.00 | 0.00 | 18 | 1006.3 |
| 20260504015618 | 89 | 110 | 2.0 | 4.0 | 0.00 | 0.00 | 0.00 | 18 | 1005.9 |
| 20260504015114 | 89 | 57 | 3.0 | 5.0 | 0.00 | 0.00 | 0.00 | 18 | 1005.7 |
| 20260504014610 | 89 | 60 | 2.0 | 5.0 | 0.00 | 0.00 | 0.00 | 18 | 1005.7 |
| 20260504014107 | 89 | 58 | 4.0 | 6.0 | 0.00 | 0.00 | 0.00 | 19 | 1005.8 |
| 20260504013605 | 90 | 69 | 3.0 | 9.0 | 0.00 | 0.00 | 0.00 | 19 | 1005.7 |
| 20260504013101 | 91 | 112 | 4.0 | 7.0 | 0.00 | 0.00 | 0.00 | 19 | 1005.8 |
| 20260504012559 | 91 | 87 | 3.0 | 6.0 | 0.00 | 0.00 | 0.00 | 18 | 1005.7 |
| 20260504012057 | 91 | 75 | 2.0 | 9.0 | 0.00 | 0.00 | 0.00 | 18 | 1005.3 |
| 20260504011553 | 91 | 118 | 3.0 | 7.0 | 0.00 | 0.00 | 0.00 | 18 | 1005.6 |
| 20260504011049 | 92 | 87 | 3.0 | 8.0 | 0.00 | 0.00 | 0.00 | 19 | 1005.5 |
| 20260504010545 | 92 | 80 | 7.0 | 9.0 | 0.00 | 0.00 | 0.00 | 18 | 1005.4 |
| 20260504010041 | 94 | 101 | 6.0 | 10.0 | 0.00 | 0.00 | 0.00 | 18 | 1005.4 |
| 20260504005538 | 94 | 71 | 5.0 | 12.0 | 0.00 | 0.00 | 0.00 | 18 | 1005.5 |
| 20260504005036 | 94 | 101 | 3.0 | 10.0 | 0.00 | 0.00 | 0.00 | 17 | 1005.6 |
| 20260504004533 | 94 | 85 | 5.0 | 10.0 | 0.00 | 0.00 | 0.00 | 17 | 1005.9 |
| 20260504004030 | 95 | 86 | 7.0 | 8.0 | 0.00 | 0.00 | 0.00 | 17 | 1005.8 |
| 20260504003526 | 95 | 99 | 5.0 | 11.0 | 0.00 | 0.00 | 0.00 | 17 | 1005.7 |
| 20260504003023 | 95 | 52 | 8.0 | 9.0 | 0.00 | 0.00 | 0.00 | 17 | 1005.4 |
| 20260504002520 | 95 | 57 | 2.0 | 16.0 | 0.00 | 0.00 | 0.00 | 17 | 1005.6 |
| 20260504002018 | 96 | 79 | 3.0 | 12.0 | 0.00 | 0.00 | 0.00 | 17 | 1005.5 |
| 20260504001515 | 96 | 89 | 4.0 | 8.0 | 0.00 | 0.00 | 0.00 | 16 | 1005.4 |
| 20260504001011 | 97 | 82 | 3.0 | 7.0 | 0.00 | 0.00 | 0.00 | 16 | 1005.5 |
| 20260504000509 | 96 | 86 | 5.0 | 9.0 | 0.00 | 0.00 | 0.00 | 17 | 1005.5 |
| 20260504000006 | 96 | 97 | 7.0 | 14.0 | 0.00 | 0.00 | 0.00 | 16 | 1005.4 |
| 20260503235504 | 97 | 113 | 4.0 | 9.0 | 0.00 | 0.00 | 0.00 | 16 | 1005.5 |
| 20260503235000 | 97 | 110 | 4.0 | 9.0 | 0.00 | 0.00 | 0.00 | 16 | 1005.6 |
| 20260503234458 | 97 | 28 | 3.0 | 11.0 | 0.00 | 0.00 | 0.00 | 16 | 1005.5 |
| 20260503233956 | 98 | 121 | 5.0 | 9.0 | 0.00 | 0.00 | 0.00 | 16 | 1005.4 |
| 20260503233452 | 98 | 87 | 4.0 | 12.0 | 0.00 | 0.00 | 0.00 | 16 | 1005.5 |
| 20260503232948 | 99 | 112 | 4.0 | 11.0 | 0.00 | 0.00 | 0.00 | 15 | 1005.3 |
| 20260503232445 | 100 | 82 | 1.0 | 6.0 | 0.00 | 0.00 | 0.00 | 14 | 1005.4 |
| 20260503231943 | 100 | 62 | 2.0 | 6.0 | 0.00 | 0.00 | 0.00 | 15 | 1005.3 |